OpenBCM V1.08-5-g2f4a (Linux)

Packet Radio Mailbox

IZ3LSV

[San Dona' di P. JN]

 Login: GUEST





  
CX2SA  > KEP      22.04.20 00:13l 87 Lines 3610 Bytes #999 (0) @ ARL
BID : ARLK032
Read: GUEST
Subj: ARLK032 Keplerian data
Path: IZ3LSV<I0OJJ<I0OJJ<GB7CIP<PE1RRR<K5DAT<N3HYM<CX2SA
Sent: 200421/2203Z @:CX2SA.SAL.URY.SOAM #:29483 [Salto] FBB7.00e $:ARLK032
From: CX2SA@CX2SA.SAL.URY.SOAM
To  : KEP@ARL


ZCZC SK32
QST de W1AW
Keplerian Bulletin 32  ARLK032
>From ARRL Headquarters
Newington, CT  April 21, 2020
To all radio amateurs

SB KEP ARL ARLK032
ARLK032 Keplerian data

Special thanks to AMSAT-NA (AMSAT.ORG) for the following Keplerian
data.

Decode 2-line elsets with the following key:
1 AAAAAU 00  0  0 BBBBB.BBBBBBBB  .CCCCCCCC  00000-0  00000-0 0  DDDZ
2 AAAAA EEE.EEEE FFF.FFFF GGGGGGG HHH.HHHH III.IIII JJ.JJJJJJJJKKKKKZ
KEY: A-CATALOGNUM B-EPOCHTIME C-DECAY D-ELSETNUM E-INCLINATION F-RAAN
G-ECCENTRICITY H-ARGPERIGEE I-MNANOM J-MNMOTION K-ORBITNUM Z-CHECKSUM

0 AO-07
1 7530U 74089B   20111.86098024 -.00000046 +00000-0 -79091-5 0  9998
2 7530 101.7947 081.9359 0012527 113.9507 300.9168 12.53643087078779
0 FO-29
1 24278U 96046B   20112.23148313 -.00000054 +00000-0 -19818-4 0  9991
2 24278 098.5754 229.5806 0350784 162.8831 198.4500 13.53097739169146
0 ISS
1 25544U 98067A   20111.96378727 -.00000842  00000-0 -70326-5 0  9993
2 25544  51.6433 271.6869 0001949 168.2706 335.1409 15.49293522223145
0 SO-50
1 27607U 02058C   20112.16917167 +.00000010 +00000-0 +22084-4 0  9992
2 27607 064.5552 189.5109 0055211 192.3760 167.5990 14.75626974932277
0 CO-55
1 27844U 03031E   20112.23650571 +.00000056 +00000-0 +44746-4 0  9997
2 27844 098.6837 120.8312 0009128 215.3687 144.6886 14.22232590871965
0 RS-22
1 27939U 03042A   20112.15504387  .00000036  00000-0  15049-4 0  9990
2 27939  98.0793 247.7661 0013374 169.0193 191.1314 14.66852042885614
0 RS-30
1 32953U 08025A   20112.01211512  .00000037  00000-0  19437-3 0  9993
2 32953  82.5011 313.6384 0019055 176.9101 183.2101 12.43095105540492
0 KKS-1
1 33499U 09002H   20112.21660321 +.00000105 +00000-0 +23440-4 0  9999
2 33499 098.3243 325.3355 0008150 313.6208 046.4324 14.75522273604148
0 AO-71
1 37854U 11061E   20111.41172252 +.00000592 +00000-0 +37923-4 0  9999
2 37854 101.7022 172.7284 0158641 234.3332 124.3025 15.07140501462731
0 AO-73
1 39444U 13066AE  20111.97729797 +.00000297 +00000-0 +42551-4 0  9991
2 39444 097.5597 115.3976 0059583 098.6327 262.1644 14.82099990345441
0 UKUBE 1
1 40074U 14037F   20112.06428080  .00000258  00000-0  37990-4 0  9991
2 40074  98.4562 296.9849 0003757 319.5819  40.5110 14.84235088313243
0 XW-2A
1 40903U 15049E   20112.16658192 +.00001926 +00000-0 +45693-4 0  9998
2 40903 097.2945 161.0640 0014845 108.0110 283.6390 15.42888645257641
0 XW-2F
1 40910U 15049M   20112.54288542  .00001075  00000-0  56363-4 0  9997
2 40910  97.4693 116.9204 0013888 192.4375 286.0229 15.17842549253708
0 XW-2B
1 40911U 15049N   20112.53879391  .00000848  00000-0  47324-4 0  9999
2 40911  97.4760 115.1213 0012995 203.3196 275.6198 15.16166059253541
0 IO-86
1 40931U 15052B   20111.12793759  .00000420  00000-0 -30534-4 0  9994
2 40931   5.9989  31.2669 0012410 176.3217 183.7631 14.76630523246627
0 CAS-4B
1 42759U 17034B   20112.13698325  .00000116  00000-0  20567-4 0  9997
2 42759  43.0206 341.9614 0011194  22.8751 115.6354 15.09793106157305
0 CAS-4A
1 42761U 17034D   20112.08201138  .00000149  00000-0  22508-4 0  9999
2 42761  43.0199 341.5999 0011691  24.0862 102.1421 15.09871616157297
0 AO-91
1 43017U 17073E   20111.74357567  .00000325  00000-0  31263-4 0  9991
2 43017  97.7251  26.2026 0255833 238.2360 119.3698 14.78885819130635
0 AO-92
1 43137U 18004AC  20112.16668293 +.00001035 +00000-0 +45677-4 0  9990
2 43137 097.4492 183.7077 0007557 253.9699 106.0706 15.24015374126321

Keplerian bulletins are transmitted twice weekly from W1AW.  The
next scheduled transmission of these data will be Friday, April 24,
2020, at 2230z on Baudot and BPSK31.
NNNN



Read previous mail | Read next mail


 14.10.2025 05:05:57lGo back Go up